Simultaneous Nadir Overpasses (SNOs) Predictions

Prediction of SNOs between GOES-16 and NPP Satellite Orbit:

Table of predicted SNOs for the next 14.0 days since TLE Epoch: 4/29/2023
Index Date Time (GOES-16) GOES-16 Lat,Lon NPP Lat,Lon Distance(km) Time Diff (sec)
1 04/29/2023 06:40:46 -0.02, -75.18 0.62, -77.91 311.10 80
2 04/30/2023 06:19:21 -0.02, -75.19 -0.42, -73.38 205.91 80
3 05/01/2023 18:43:55 0.02, -75.19 -0.78, -78.68 397.78 80
4 05/02/2023 18:22:30 0.02, -75.20 0.26, -74.15 119.64 80
5 05/04/2023 06:46:55 -0.02, -75.21 0.93, -79.41 478.61 80
6 05/05/2023 06:25:30 -0.02, -75.22 -0.12, -74.88 38.96 80
7 05/07/2023 18:31:17 0.02, -75.23 -0.08, -75.64 46.78 80
8 05/08/2023 18:09:52 0.02, -75.24 0.97, -71.12 470.85 80
9 05/10/2023 06:34:17 -0.01, -75.26 0.22, -76.38 127.20 80
10 05/11/2023 06:12:51 -0.01, -75.27 -0.77, -71.84 390.64 80
11 05/12/2023 18:37:25 0.01, -75.28 -0.40, -77.14 211.82 80
